DMSP 5D-2 F13 DEB, 42300

Orbit data source: Space-Track

DMSP 5D-2 F13 DEB, 42300 is space debris in SSO originally from a launch on Fri, 24 Mar 1995 UTC launched from the Air Force Western Test Range (AFWTR). Debris objects in space refer to the collection of defunct objects orbiting the Earth. Examples of debris include non-operational satellites, rocket bodies, and fragments generated from explosions, collisions, or faulty payload assembly.

Loading next visibility...
Identifier
42300, 1995-015HS
Orbit
SSO
Country
Flag of USUS
Related business
Manufacturer
Unknown
Mission
Spacecraft
Bus & Motor
Unknown
Mass
Unknown
Launch date (UTC)
1995-03-24 (31 years ago)
Launch vehicle
Unknown
Launch site
Air Force Western Test Range (AFWTR)
Object type
Payload
Rocket body
Debris
Shape & HBR
Unknown shape, 0.1 m
Radar Cross Section
Small (<0.1 m²)

Expand to show TLE details & history
Last TLE update: 3 days ago

TLE from 3 days ago
0 DMSP 5D-2 F13 DEB
1 42300U 95015HS  26170.07062369  .00003519  00000-0  99763-3 0  9993
2 42300  98.5920 215.1570 0022205 280.0554  79.8132 14.45989006501406
Epoch: 2026-06-19T01:41Z
TLE epoch observation values (Epoch: 2026-06-19T01:41:41.886Z)
Latitude
-0.00003°
Longitude
-77.5724°
Altitude
738.971 km
Speed
7.487 km/s
True Right ascension
14h 20m 37s
True Declination
0° 00' 00"
Sunlit
Object was in full shadow at epoch
Visualization orbit readout
Latitude
Unknown
Longitude
Unknown
Altitude
Unknown
Speed
Unknown
Apparent Right ascension
Unknown
Apparent Declination
Unknown
Sunlit
N/A
Visualization observer readout
Local Sidereal Time
21:39:05
Azimuth
Unknown
Elevation
Unknown
Doppler factor
Unknown
Orbital elements
Apogee altitude
751.694 km
Perigee altitude
720.101 km
Semi-major axis
7,114.034 km
Eccentricity
0.00222
Inclination
98.592°
RAAN
215.157°
Arg. of periapsis
280.0554°
True anomaly
80.06376°
Mean anomaly
79.8132°
Eccentric anomaly
79.93847°
Mean motion
3.61717 °/min
Orbital period
99.53 mins
BSTAR
0.00099763

Documentation

Showing up to 5 results
|